{"data":{"norad_id":66456,"epoch":"2026-09-20T11:34:06.422592Z","epoch_age_seconds":94993,"freshness":"FRESH","line1":"1 66456U 25262A   26263.48201878  .00008232  00000+0  30838-3 0  9990","line2":"2 66456  42.9993 276.4131 0000215  33.9789 326.1076 15.27573718 48694","mean_motion":15.27573718,"eccentricity":2.15e-5,"inclination_deg":42.9993,"raan_deg":276.4131,"arg_perigee_deg":33.9789,"mean_anomaly_deg":326.1076,"bstar":0.00030838,"rev_number":4869,"period_min":94.26713637659,"perigee_km":482.92039076656,"apogee_km":483.21542257755,"semimajor_km":6861.2049066721,"source":"CELESTRAK","updated_at":"2026-09-21T09:00:35.912296Z"}}